Regional Weather Roundup
Issued by NWS Nashville, TN

Home | Current Version | Previous Version | Text Only | Print | Product List | Glossary On
Versions: 1 2 3 4 5 6 7 8 9 10 11 12 13 14 15 16 17 18 19 20 21 22 23 24 25 26 27 28
000
ASUS44 KOHX 181910
RWROHX
MIDDLE TENNESSEE HOURLY WEATHER ROUNDUP
NATIONAL WEATHER SERVICE NASHVILLE TN
200 PM CDT FRI AUG 18 2017

NOTE: "FAIR" INDICATES FEW OR NO CLOUDS BELOW 12,000 FEET WITH
NO SIGNIFICANT WEATHER AND/OR OBSTRUCTIONS TO VISIBILITY.

* THESE REPORTS ARE NOT UNDER NWS QUALITY CONTROL AND MAY NOT
  REPORT WEATHER SUCH AS PRECIPITATION AND FOG.


TNZ005>011-023>034-057-059-062>066-078-080-182000
...NORTHERN MIDDLE TENNESSEE...

CITY           SKY/WX    TMP DP  RH WIND       PRES   REMARKS
CLARKSVILLE    MOSUNNY   85  63  47 NW9G18    29.99F
CROSSVILLE     MOSUNNY   81  63  54 W9        30.04S
GALLATIN       MOSUNNY   88  66  48 VRB5      30.01S HX  90
DICKSON        MOSUNNY   82  64  54 W7        30.01S
LEBANON        MOSUNNY   85  64  49 VRB6      29.98S
NASHVILLE      MOSUNNY   88  63  43 W10       29.99F
PORTLAND       MOSUNNY   82  64  54 VRB7G14   29.99S
SMYRNA         MOSUNNY   88  67  49 W9        29.99F HX  91
SPARTA         MOSUNNY   84  66  54 VRB6      29.99F
SPRINGFIELD    MOSUNNY   84  64  51 W6G14     29.98F
WEST NASHVILLE SUNNY     86  64  48 NW13      29.97S
$$
TNZ056-058-060-061-075>077-079-093>097-182000
...SOUTHERN MIDDLE TENNESSEE...

CITY           SKY/WX    TMP DP  RH WIND       PRES   REMARKS
COLUMBIA       MOSUNNY   84  66  54 VRB7      29.98S
FAYETTEVILLE   MOSUNNY   86  68  54 W8        30.00F
MCMINNVILLE    MOSUNNY   84  70  61 W8        30.01S
MURFREESBORO   MOSUNNY   86  59  39 NW6       29.98S
PULASKI        SUNNY     88  64  45 W9G15     29.99F
SHELBYVILLE    MOSUNNY   86  66  51 W7G16     30.00S
TULLAHOMA      MOSUNNY   86  64  48 W9        30.02F
WINCHESTER     MOSUNNY   84  66  54 NW6       30.01F
$$


...KEY TO REMARKS...
VSB - VISIBILITY IN MILES
WCI - WIND CHILL INDEX
HX  - HEAT INDEX





USA.gov is the U.S. government's official web portal to all federal, state and local government web resources and services.